CZ-6A DEB, 56608

Orbit data source: Space-Track

CZ-6A DEB, 56608 is space debris in SSO originally from a launch on Fri, 11 Nov 2022 UTC launched from the Taiyaun Space Center, China (TSC). Debris objects in space refer to the collection of defunct objects orbiting the Earth. Examples of debris include non-operational satellites, rocket bodies, and fragments generated from explosions, collisions, or faulty payload assembly.

Loading next visibility...
Identifier
56608, 2022-151AEG
Orbit
SSO
Country
Flag of CNCN / PRC
Related business
Manufacturer
SAST
Mission
Spacecraft
Bus & Motor
Unknown
Mass
Unknown
Launch date (UTC)
2022-11-11 (4 years ago)
Launch vehicle
Unknown
Launch site
Taiyaun Space Center, China (TSC)
Object type
Payload
Rocket body
Debris
Shape & HBR
Unknown shape, 0.1 m
Radar Cross Section
Medium (>0.1 m² and <1 m²)

Expand to show TLE details & history
Last TLE update: 4 days ago

TLE from 4 days ago
0 CZ-6A DEB
1 56608U 22151AEG 26169.76991681  .00000749  00000-0  39873-3 0  9990
2 56608  98.8908 193.3808 0030107 319.8987  39.9965 14.16315398162794
Epoch: 2026-06-18T18:28Z
TLE epoch observation values (Epoch: 2026-06-18T18:28:40.812Z)
Latitude
0.00002°
Longitude
9.20226°
Altitude
824.125 km
Speed
7.45 km/s
True Right ascension
12h 53m 31s
True Declination
0° 00' 00"
Sunlit
Object was in daylight at epoch
Visualization orbit readout
Latitude
Unknown
Longitude
Unknown
Altitude
Unknown
Speed
Unknown
Apparent Right ascension
Unknown
Apparent Declination
Unknown
Sunlit
N/A
Visualization observer readout
Local Sidereal Time
21:54:16
Azimuth
Unknown
Elevation
Unknown
Doppler factor
Unknown
Orbital elements
Apogee altitude
856.73 km
Perigee altitude
813.296 km
Semi-major axis
7,213.15 km
Eccentricity
0.00301
Inclination
98.8908°
RAAN
193.3808°
Arg. of periapsis
319.8987°
True anomaly
40.21889°
Mean anomaly
39.9965°
Eccentric anomaly
40.10763°
Mean motion
3.54287 °/min
Orbital period
101.61 mins
BSTAR
0.00039873
Loading maneuver chart data...
Computing Atmospheric mass density...
Loading historical data...
Loading historical data...
Loading historical data...
Loading historical data...
Loading historical data...
Loading historical data...
Loading historical data...

Documentation

Showing up to 5 results
|